Total_Precipitation_Accumulation
0.64 0.78 0.84 0.79 0.79 0.84 0.89 0.94 0.98 0.95 0.94 0.90 0.80 0.74 0.72 0.70 0.63 0.54 0.42 0.38 0.37 0.35 0.34 0.34 0.36 0.42 0.46 0.51 0.57 0.67 0.74 0.81 0.93 1.09 1.34 1.60 1.80 2.01
0.82 0.90 0.95 0.97 0.96 0.88 0.92 0.96 0.99 1.04 1.01 0.85 0.78 0.79 0.71 0.55 0.52 0.47 0.40 0.42 0.39 0.36 0.33 0.31 0.30 0.35 0.39 0.40 0.38 0.41 0.46 0.50 0.55 0.60 0.71 0.86 1.03 1.25
0.96 1.06 1.11 1.15 1.15 1.03 0.97 0.94 0.95 1.03 0.98 0.83 0.77 0.79 0.68 0.53 0.46 0.43 0.41 0.40 0.36 0.37 0.33 0.29 0.28 0.29 0.32 0.35 0.34 0.33 0.34 0.36 0.40 0.44 0.48 0.54 0.59 0.67
1.01 1.19 1.28 1.23 1.13 1.05 1.04 0.99 0.97 1.06 1.00 0.91 0.89 0.83 0.75 0.66 0.56 0.50 0.43 0.39 0.38 0.39 0.35 0.30 0.28 0.27 0.27 0.27 0.27 0.27 0.28 0.30 0.31 0.33 0.35 0.39 0.40 0.42
1.02 1.08 1.10 1.16 1.13 1.05 1.00 0.96 0.95 1.05 1.05 0.96 1.02 1.01 0.90 0.78 0.65 0.55 0.47 0.45 0.39 0.37 0.38 0.35 0.32 0.27 0.25 0.25 0.25 0.25 0.24 0.23 0.25 0.27 0.30 0.34 0.34 0.34
0.88 0.92 0.94 0.98 1.04 1.10 1.04 0.98 0.99 1.02 1.03 1.02 1.06 1.19 1.09 0.93 0.75 0.62 0.53 0.49 0.45 0.34 0.35 0.38 0.37 0.32 0.28 0.25 0.24 0.23 0.25 0.23 0.22 0.24 0.24 0.26 0.31 0.36
0.62 0.63 0.74 0.89 0.97 1.03 0.98 0.96 1.01 1.02 1.02 1.07 1.10 1.23 1.25 1.08 0.85 0.65 0.57 0.55 0.52 0.46 0.39 0.33 0.31 0.27 0.25 0.26 0.26 0.24 0.22 0.22 0.22 0.20 0.21 0.24 0.28 0.39
0.47 0.45 0.46 0.56 0.73 0.85 0.87 0.86 0.92 0.98 1.02 1.04 1.11 1.19 1.25 1.16 0.98 0.83 0.68 0.57 0.54 0.53 0.54 0.48 0.37 0.32 0.26 0.22 0.24 0.25 0.25 0.23 0.21 0.20 0.19 0.19 0.23 0.33
0.41 0.41 0.34 0.32 0.46 0.60 0.71 0.74 0.75 0.75 0.84 0.99 1.10 1.11 1.23 1.27 1.20 0.99 0.87 0.75 0.60 0.57 0.61 0.61 0.53 0.42 0.32 0.29 0.32 0.27 0.27 0.26 0.26 0.26 0.22 0.18 0.17 0.21
0.38 0.37 0.37 0.37 0.40 0.46 0.58 0.67 0.71 0.68 0.66 0.74 0.89 1.08 1.24 1.39 1.37 1.24 1.14 1.00 0.82 0.72 0.68 0.66 0.61 0.53 0.43 0.36 0.36 0.31 0.29 0.28 0.27 0.33 0.41 0.42 0.29 0.24
0.43 0.43 0.43 0.41 0.40 0.37 0.44 0.50 0.55 0.64 0.63 0.65 0.75 0.97 1.15 1.29 1.45 1.39 1.25 1.06 0.87 0.74 0.67 0.59 0.56 0.57 0.53 0.44 0.37 0.36 0.31 0.29 0.28 0.31 0.45 0.70 0.77 0.60
0.65 0.62 0.50 0.41 0.36 0.31 0.37 0.45 0.47 0.49 0.59 0.64 0.69 0.80 0.96 1.08 1.21 1.22 1.08 1.00 0.83 0.71 0.60 0.54 0.48 0.52 0.57 0.51 0.42 0.36 0.33 0.33 0.34 0.37 0.52 0.84 0.99 0.87
0.72 0.69 0.63 0.47 0.35 0.30 0.32 0.39 0.42 0.49 0.58 0.63 0.73 0.86 1.01 1.13 1.12 1.10 1.04 0.89 0.81 0.63 0.50 0.54 0.50 0.45 0.44 0.43 0.41 0.40 0.35 0.31 0.31 0.35 0.45 0.71 0.96 0.94
0.82 0.77 0.73 0.57 0.41 0.36 0.31 0.30 0.32 0.35 0.50 0.58 0.64 0.75 0.89 1.04 1.13 1.16 1.14 0.99 0.82 0.70 0.63 0.62 0.55 0.49 0.41 0.36 0.36 0.38 0.41 0.40 0.36 0.34 0.36 0.52 0.66 0.92
0.90 0.90 0.78 0.64 0.52 0.43 0.40 0.38 0.35 0.34 0.46 0.56 0.57 0.61 0.68 0.83 1.11 1.33 1.43 1.35 1.09 0.83 0.74 0.67 0.58 0.54 0.52 0.40 0.33 0.32 0.38 0.43 0.42 0.41 0.41 0.44 0.54 0.71
0.94 0.96 0.86 0.79 0.69 0.58 0.54 0.49 0.43 0.40 0.44 0.53 0.57 0.63 0.75 0.89 1.07 1.27 1.47 1.50 1.33 0.97 0.79 0.73 0.66 0.64 0.60 0.51 0.42 0.34 0.31 0.35 0.39 0.43 0.49 0.52 0.62 0.70
1.07 1.17 1.11 1.02 0.95 0.84 0.76 0.70 0.66 0.59 0.53 0.56 0.68 0.75 0.84 0.88 0.97 1.11 1.32 1.42 1.28 0.96 0.77 0.76 0.79 0.78 0.73 0.70 0.57 0.41 0.35 0.30 0.32 0.40 0.48 0.52 0.58 0.62
0.99 1.15 1.12 1.05 1.01 0.99 0.96 0.90 0.85 0.79 0.73 0.73 0.78 0.84 0.88 0.91 0.97 1.08 1.19 1.27 1.22 1.03 0.84 0.73 0.81 0.87 0.81 0.71 0.57 0.45 0.37 0.34 0.35 0.44 0.48 0.47 0.46 0.51
0.80 0.97 0.98 0.97 0.99 1.03 1.01 0.93 0.86 0.86 0.90 0.88 0.84 0.88 0.94 0.96 0.99 1.07 1.12 1.19 1.21 1.16 1.01 0.86 0.82 0.81 0.71 0.54 0.45 0.44 0.42 0.40 0.45 0.49 0.50 0.47 0.41 0.40
0.71 0.84 0.90 0.93 0.96 1.02 1.00 0.98 0.95 0.98 1.02 0.98 0.95 0.96 1.03 1.06 1.04 1.05 1.11 1.13 1.18 1.22 1.18 1.02 0.86 0.76 0.66 0.56 0.50 0.44 0.40 0.43 0.49 0.50 0.50 0.53 0.49 0.49
0.78 0.84 0.88 0.89 0.92 0.98 1.00 1.01 1.04 1.07 1.08 1.08 1.08 1.08 1.14 1.19 1.09 1.04 1.10 1.16 1.13 1.16 1.11 0.97 0.86 0.89 0.91 0.87 0.66 0.48 0.44 0.43 0.46 0.50 0.56 0.60 0.57 0.57
0.85 0.84 0.88 0.90 0.92 0.95 0.99 1.00 1.04 1.09 1.09 1.10 1.14 1.17 1.17 1.18 1.10 1.08 1.07 1.11 1.07 1.02 1.03 1.07 1.17 1.18 1.05 0.89 0.67 0.55 0.55 0.53 0.51 0.52 0.51 0.51 0.49 0.47
0.86 0.86 0.88 0.87 0.88 0.91 0.95 0.97 1.05 1.09 1.09 1.08 1.13 1.18 1.18 1.16 1.11 1.09 1.07 1.07 1.11 1.12 1.17 1.23 1.30 1.25 1.06 0.91 0.75 0.66 0.64 0.64 0.60 0.53 0.46 0.41 0.36 0.33